Temp
65 65 65 65 64 64 64 64 64 64 64 64 64 64 64 64 63 58 53 63 63 71 68 60 60 59 60 57 57 54 46 42 46 45 51 48 50 50 50 49 48 50 48 46 46
64 64 64 63 63 63 64 64 64 64 64 64 64 64 64 63 55 52 64 71 72 70 60 57 55 56 53 53 53 50 42 46 49 50 52 50 50 50 49 46 47 46 42 43 44
63 63 63 62 62 62 63 63 63 64 64 64 64 64 63 60 52 55 68 72 71 68 61 60 58 56 51 52 51 49 46 48 52 53 54 51 48 50 48 46 50 48 43 41 42
62 62 61 61 61 62 62 62 62 63 63 63 63 63 62 55 48 56 70 70 70 61 59 56 55 51 48 47 51 46 49 50 52 53 51 49 48 46 47 56 53 53 45 41 41
61 61 61 60 60 61 61 61 62 63 62 63 63 62 56 48 52 61 69 67 60 58 55 53 51 50 46 47 49 46 47 50 50 51 49 48 47 48 47 52 49 45 42 40 41
61 60 60 60 60 60 60 60 61 61 61 62 62 61 51 45 58 61 59 59 58 56 54 53 52 53 49 48 47 48 48 48 50 50 48 46 46 47 51 51 45 43 42 41 41
60 59 59 59 59 59 59 60 60 60 61 62 62 58 49 51 58 58 59 56 57 56 53 54 54 52 50 46 50 48 44 45 45 47 46 46 40 41 51 44 43 41 41 40 41
59 59 58 58 58 58 58 58 59 59 61 62 62 52 46 57 55 56 56 55 57 57 55 54 54 51 49 49 47 43 42 38 44 43 45 46 41 50 46 44 44 41 40 40 40
59 58 58 58 57 57 57 58 59 60 62 62 51 47 45 59 52 53 54 52 53 54 54 59 53 46 46 40 37 38 34 35 40 42 42 41 40 45 40 40 42 42 41 40 40
58 57 57 57 57 57 57 59 59 58 57 58 56 44 49 47 50 52 52 53 50 50 49 47 42 38 36 37 31 32 32 34 35 40 39 37 36 43 43 40 42 43 41 39 38
58 57 57 57 57 56 54 49 46 45 47 43 43 45 48 51 52 50 51 50 49 46 39 41 36 33 36 36 37 35 35 34 37 40 38 37 38 42 45 39 42 45 44 39 39
57 57 56 56 56 56 49 44 43 44 36 45 46 45 49 49 45 47 50 44 42 37 38 36 32 38 40 38 36 35 33 33 37 38 36 34 36 40 44 44 43 42 40 39 37
56 56 56 56 55 49 44 44 51 51 36 41 46 45 45 47 42 43 46 42 39 35 35 33 38 41 39 37 35 34 32 32 34 35 34 32 33 36 41 40 38 35 34 36 37
56 56 56 55 48 44 43 50 52 51 31 38 41 44 46 45 39 46 45 42 38 36 35 35 39 38 37 36 36 31 35 34 33 32 26 32 27 35 41 36 36 31 29 29 34
55 55 55 54 45 41 46 52 52 44 24 41 42 49 45 40 40 40 44 41 37 37 36 37 36 35 35 35 36 34 35 33 32 29 25 27 25 31 34 33 29 24 26 27 30
55 55 54 46 43 46 47 50 44 32 20 36 42 40 40 40 40 41 40 42 40 36 35 35 36 35 34 34 35 35 32 31 27 26 17 26 27 25 27 25 25 24 25 26 27
54 54 50 49 41 49 46 41 30 24 38 34 34 38 35 34 36 37 35 32 31 30 29 33 32 32 34 32 33 32 28 21 18 15 19 23 22 24 24 20 20 20 23 25 27
54 53 47 48 46 44 42 35 26 32 30 36 36 35 33 34 34 35 34 30 31 30 27 24 23 30 33 31 29 28 28 21 14 15 17 20 21 25 19 18 18 21 22 28 28
53 41 41 45 46 43 37 24 26 29 34 33 35 30 32 34 33 32 29 27 27 30 25 22 24 30 33 32 32 26 23 27 19 19 17 21 25 27 28 25 24 24 28 26 28
42 36 38 45 42 41 33 32 31 35 35 33 28 29 25 28 29 29 28 30 29 33 35 27 20 29 30 31 30 28 29 16 18 13 12 15 16 20 20 24 26 26 26 28 29
34 30 42 46 42 36 27 28 32 38 38 32 28 28 27 26 26 25 27 33 34 33 35 31 26 23 27 24 24 22 21 22 20 21 12 15 16 18 26 28 29 27 27 26 29
35 28 42 43 33 29 28 32 38 36 38 35 33 33 30 28 26 27 28 30 33 32 26 27 22 20 22 23 26 20 21 21 20 13 19 17 18 24 25 28 28 31 30 30 29
33 30 40 40 26 27 32 32 34 33 32 31 31 32 33 29 22 28 28 32 31 30 22 25 17 12 18 19 23 22 24 24 23 21 15 16 18 23 22 25 29 27 29 30 30
30 25 31 32 30 26 26 29 29 34 30 31 30 31 27 25 28 24 24 30 31 31 38 33 22 16 12 19 27 22 23 24 23 18 20 20 22 24 25 28 28 26 26 26 27
30 27 28 22 25 26 28 27 26 27 29 29 26 28 20 11 15 18 24 22 27 32 25 29 19 18 21 22 23 22 23 24 22 23 18 20 21 24 26 26 25 24 24 26 26
28 27 28 27 26 23 26 24 26 28 26 24 21 26 17 15 20 20 15 17 19 16 18 23 19 19 16 22 22 19 22 22 23 24 24 22 22 28 25 25 25 22 23 25 26
35 36 33 28 22 22 23 26 28 29 30 30 26 20 19 25 26 27 27 26 26 22 24 23 20 14 10 18 17 11 16 20 19 23 23 18 24 27 25 26 24 22 22 23 25
MSLP
1019.20 1018.82 1018.38 1017.93 1017.47 1016.98 1016.63 1016.13 1015.72 1015.25 1014.80 1014.48 1014.16 1013.92 1013.76 1013.71 1013.60 1013.50 1013.00 1011.43 1011.58 1011.67 1012.14 1012.85 1013.26 1013.61 1013.88 1014.15 1014.35 1014.59 1014.95 1014.24 1013.04 1013.19 1012.59 1013.07 1013.50 1013.89 1014.18 1014.61 1015.21 1015.51 1016.18 1016.98 1017.51
1019.36 1018.96 1018.52 1018.10 1017.58 1017.00 1016.53 1015.99 1015.51 1015.10 1014.68 1014.19 1013.94 1013.78 1013.64 1013.55 1013.58 1012.63 1010.90 1010.82 1011.00 1011.44 1012.17 1012.55 1013.14 1013.55 1013.99 1014.10 1014.31 1014.46 1014.46 1013.33 1012.63 1012.35 1012.34 1012.81 1013.33 1013.55 1014.14 1014.47 1014.89 1015.55 1016.51 1017.36 1018.11
1019.29 1018.99 1018.48 1017.99 1017.50 1016.91 1016.32 1015.84 1015.34 1014.85 1014.38 1013.90 1013.67 1013.47 1013.47 1013.55 1013.41 1011.20 1010.46 1010.64 1010.93 1011.29 1011.79 1012.19 1012.67 1013.38 1013.82 1013.84 1013.74 1013.64 1013.35 1012.50 1012.07 1011.98 1012.22 1012.68 1013.22 1013.33 1013.79 1013.88 1013.45 1013.69 1015.19 1016.88 1017.65
1019.47 1019.00 1018.41 1017.84 1017.26 1016.64 1016.06 1015.53 1015.05 1014.46 1014.02 1013.60 1013.41 1013.15 1013.18 1013.54 1012.75 1010.74 1010.51 1010.77 1011.00 1011.58 1011.99 1012.32 1012.79 1013.28 1013.63 1013.67 1013.24 1013.50 1012.43 1012.33 1011.97 1011.85 1012.27 1012.71 1012.88 1013.23 1013.20 1011.93 1012.26 1012.96 1014.29 1016.21 1017.09
1019.65 1019.15 1018.54 1017.99 1017.28 1016.62 1015.87 1015.11 1014.44 1014.06 1013.58 1013.20 1012.95 1012.98 1013.17 1013.23 1011.62 1010.76 1010.82 1010.98 1011.45 1011.86 1012.02 1012.35 1012.73 1012.91 1013.17 1013.13 1013.09 1013.07 1012.32 1012.24 1012.07 1012.13 1012.36 1012.62 1012.62 1012.78 1012.33 1011.75 1012.45 1013.23 1014.29 1015.20 1015.98
1019.78 1019.11 1018.45 1017.83 1017.09 1016.19 1015.31 1014.47 1013.72 1013.42 1012.97 1012.63 1012.44 1012.57 1013.01 1012.65 1010.83 1010.82 1011.09 1011.45 1011.68 1011.84 1012.02 1012.23 1012.16 1012.19 1012.65 1012.69 1012.81 1012.36 1012.39 1012.31 1012.21 1012.11 1012.37 1012.74 1012.82 1013.07 1010.99 1011.32 1012.56 1013.51 1014.20 1014.87 1015.31
1019.89 1019.19 1018.50 1017.77 1016.91 1015.93 1014.89 1013.78 1013.25 1012.60 1012.21 1011.84 1012.11 1012.45 1012.31 1011.00 1010.59 1010.67 1010.78 1011.11 1011.45 1011.78 1012.01 1012.15 1012.26 1012.31 1012.49 1012.54 1012.39 1012.40 1012.60 1012.32 1012.11 1011.96 1012.25 1012.45 1012.88 1012.46 1010.79 1011.79 1012.62 1013.40 1014.00 1014.59 1015.05
1020.05 1019.37 1018.55 1017.66 1016.77 1015.79 1014.51 1013.24 1012.69 1012.04 1011.50 1011.32 1011.92 1012.61 1012.00 1011.24 1011.16 1011.07 1010.96 1011.16 1011.22 1011.34 1011.65 1011.95 1012.18 1012.54 1012.67 1012.69 1012.63 1012.76 1012.96 1012.74 1011.90 1012.13 1012.23 1012.47 1011.82 1011.05 1011.23 1012.03 1012.42 1012.88 1013.54 1014.21 1014.64
1019.94 1019.25 1018.43 1017.56 1016.66 1015.57 1014.07 1012.62 1011.96 1011.43 1011.26 1011.51 1012.16 1012.51 1011.76 1011.24 1011.37 1011.36 1011.32 1011.41 1011.47 1011.61 1011.70 1011.87 1012.23 1012.90 1013.08 1013.32 1013.64 1013.39 1013.15 1013.04 1012.54 1012.14 1012.46 1012.65 1012.07 1011.22 1011.62 1012.03 1012.17 1012.54 1013.16 1013.75 1014.58
1019.91 1019.10 1018.25 1017.21 1016.17 1015.04 1013.58 1012.08 1011.76 1011.80 1011.91 1011.93 1011.96 1012.60 1011.56 1011.64 1011.54 1011.48 1011.40 1011.41 1011.66 1011.92 1012.15 1012.43 1013.03 1013.37 1013.87 1014.02 1013.73 1013.52 1013.66 1013.47 1013.26 1012.69 1012.77 1012.80 1012.15 1011.47 1011.59 1012.00 1011.72 1011.86 1012.15 1012.81 1013.65
1019.65 1018.73 1017.83 1016.88 1015.74 1014.71 1013.49 1012.63 1012.77 1012.65 1012.50 1012.75 1012.88 1012.39 1011.68 1011.52 1011.52 1011.73 1011.75 1011.65 1011.74 1012.16 1012.77 1013.06 1013.43 1013.34 1013.23 1013.44 1013.48 1013.53 1013.64 1013.51 1012.82 1012.49 1012.80 1012.17 1011.65 1011.24 1010.77 1011.38 1011.11 1010.71 1011.45 1012.36 1012.99
1019.70 1018.53 1017.42 1016.44 1015.43 1014.51 1013.95 1014.86 1015.69 1015.85 1014.40 1012.87 1012.62 1012.39 1011.79 1011.54 1011.66 1011.91 1012.04 1012.22 1012.28 1012.72 1013.06 1013.67 1013.12 1012.73 1012.87 1013.10 1013.42 1013.62 1013.72 1013.26 1012.62 1012.49 1012.80 1012.06 1010.78 1010.59 1009.75 1009.72 1010.83 1011.50 1011.88 1012.30 1012.87
1019.61 1018.61 1017.21 1016.13 1015.13 1014.89 1015.24 1015.78 1015.77 1015.71 1015.23 1013.08 1012.13 1012.12 1012.01 1011.83 1011.73 1011.70 1011.99 1012.16 1012.44 1012.97 1013.26 1013.33 1012.57 1012.46 1012.79 1013.17 1013.55 1013.56 1013.67 1013.13 1013.11 1013.02 1012.99 1012.56 1010.57 1009.81 1009.34 1010.38 1011.50 1012.40 1012.93 1012.72 1012.84
1019.27 1018.41 1017.25 1015.77 1015.46 1015.93 1015.66 1015.57 1015.21 1015.17 1015.15 1013.19 1012.24 1011.84 1012.01 1011.86 1012.21 1012.10 1011.94 1012.15 1012.54 1012.79 1013.11 1013.12 1012.63 1012.60 1012.83 1013.07 1013.26 1013.57 1013.32 1013.48 1013.65 1013.96 1014.00 1013.45 1011.67 1010.29 1009.96 1011.37 1012.31 1013.31 1013.64 1013.81 1013.60
1019.10 1018.04 1017.11 1016.21 1016.66 1016.43 1016.28 1015.33 1015.06 1015.17 1014.47 1012.79 1012.22 1011.92 1012.03 1012.36 1012.33 1012.40 1012.38 1012.28 1012.33 1012.57 1013.09 1012.42 1012.72 1012.92 1013.15 1013.36 1013.38 1013.51 1013.77 1013.93 1014.12 1014.32 1014.55 1014.07 1014.13 1011.13 1011.50 1012.63 1013.46 1014.39 1014.83 1015.10 1015.03
1018.94 1017.90 1017.03 1016.90 1016.82 1016.35 1015.91 1015.43 1015.12 1015.23 1013.60 1012.54 1011.87 1012.18 1012.34 1012.21 1012.54 1012.65 1012.70 1012.68 1012.63 1012.81 1013.08 1013.09 1013.29 1013.67 1013.95 1014.09 1014.03 1014.16 1014.41 1014.78 1015.07 1015.31 1015.21 1013.91 1014.15 1013.15 1013.83 1014.90 1015.37 1015.56 1015.65 1015.86 1015.97
1018.84 1017.74 1017.04 1017.06 1016.87 1016.07 1015.99 1015.64 1015.51 1014.57 1013.52 1013.67 1013.20 1012.92 1012.93 1012.95 1012.86 1013.00 1013.00 1013.34 1013.92 1013.71 1013.72 1013.80 1014.17 1014.61 1014.71 1014.74 1014.72 1014.70 1015.06 1015.63 1015.94 1016.32 1015.33 1015.02 1015.55 1014.42 1015.33 1016.08 1016.79 1016.70 1016.22 1016.20 1016.37
1018.53 1017.58 1017.25 1016.69 1016.62 1016.25 1016.03 1015.92 1015.71 1015.16 1014.78 1014.58 1014.22 1013.81 1013.64 1013.81 1013.59 1013.58 1013.61 1014.41 1014.80 1014.77 1014.79 1015.00 1014.97 1015.02 1015.19 1015.33 1015.38 1015.59 1015.89 1016.49 1016.66 1016.56 1016.11 1015.66 1015.64 1015.51 1016.05 1016.43 1016.75 1017.11 1016.81 1016.46 1016.56
1018.70 1017.92 1017.22 1016.71 1016.32 1016.31 1016.58 1016.63 1016.06 1016.00 1015.69 1015.39 1014.77 1014.50 1014.55 1014.54 1014.56 1014.47 1014.70 1015.17 1015.74 1015.52 1015.86 1016.00 1015.82 1015.61 1015.60 1015.78 1016.23 1016.54 1016.69 1016.94 1017.24 1017.02 1016.77 1015.32 1015.03 1015.56 1015.92 1016.44 1016.62 1016.68 1016.68 1016.66 1016.54
1019.64 1019.00 1018.02 1016.75 1016.41 1016.41 1017.17 1017.06 1016.87 1016.55 1016.03 1015.74 1015.79 1015.45 1015.46 1015.39 1015.43 1015.41 1015.44 1015.95 1016.28 1016.37 1016.30 1016.72 1016.69 1016.02 1016.24 1016.42 1016.73 1016.94 1017.15 1017.68 1017.83 1017.22 1016.49 1015.39 1015.29 1015.21 1016.13 1016.12 1016.04 1016.25 1016.21 1016.17 1016.34
1020.60 1019.81 1017.39 1016.56 1016.73 1017.04 1017.74 1017.84 1017.42 1017.13 1016.46 1016.22 1016.23 1016.21 1016.15 1016.57 1016.47 1016.25 1016.04 1016.31 1016.49 1016.91 1016.76 1016.93 1017.21 1017.06 1017.04 1017.27 1017.23 1017.67 1017.60 1017.71 1017.74 1017.10 1016.36 1015.83 1014.84 1014.99 1015.19 1015.29 1015.87 1016.09 1016.14 1016.14 1016.24
1021.79 1020.93 1017.72 1016.98 1017.98 1018.98 1018.80 1018.33 1017.96 1017.46 1017.09 1016.79 1016.78 1016.98 1016.99 1017.15 1017.07 1016.89 1016.59 1016.52 1016.82 1017.02 1017.39 1017.72 1017.74 1017.59 1017.51 1017.46 1017.65 1017.58 1017.49 1017.49 1017.24 1016.87 1016.35 1016.02 1015.04 1015.13 1015.75 1015.62 1015.86 1015.75 1015.96 1016.09 1016.29
1022.65 1021.68 1018.69 1018.14 1019.56 1020.13 1019.60 1019.04 1018.48 1018.01 1017.85 1017.70 1017.51 1017.59 1017.79 1018.04 1018.19 1017.55 1017.37 1017.33 1017.39 1017.30 1017.66 1017.95 1018.17 1018.29 1017.69 1018.24 1018.03 1017.67 1017.59 1017.44 1017.07 1016.43 1015.80 1015.77 1015.35 1015.42 1016.03 1016.19 1015.99 1016.20 1016.27 1016.38 1016.38
1023.18 1022.62 1020.90 1020.58 1021.15 1021.32 1020.93 1019.95 1019.08 1018.51 1018.53 1018.51 1018.55 1018.50 1018.75 1018.93 1018.78 1018.67 1018.33 1017.83 1017.87 1017.82 1017.82 1018.10 1018.17 1018.41 1018.24 1017.86 1017.73 1017.70 1017.34 1017.02 1016.85 1016.00 1015.20 1015.02 1014.97 1015.62 1015.88 1015.95 1015.79 1015.95 1016.30 1016.55 1016.68
1023.66 1023.29 1022.70 1022.30 1021.92 1022.00 1021.80 1020.77 1019.86 1019.37 1019.11 1019.18 1019.28 1019.49 1019.98 1020.36 1020.15 1019.62 1018.99 1018.89 1018.33 1017.98 1018.28 1018.33 1018.30 1018.29 1018.12 1017.68 1017.59 1017.19 1016.80 1016.23 1015.93 1015.17 1014.92 1014.18 1014.65 1014.76 1015.31 1015.64 1015.97 1016.36 1016.37 1016.57 1016.87
1023.66 1023.69 1022.89 1022.48 1022.28 1022.20 1021.63 1020.92 1020.30 1019.80 1019.96 1019.75 1020.00 1020.01 1020.48 1021.18 1020.76 1020.43 1019.96 1019.59 1019.16 1018.72 1018.58 1018.51 1018.32 1018.40 1018.30 1017.39 1017.08 1016.77 1015.76 1015.21 1014.93 1014.72 1014.47 1014.40 1014.25 1014.58 1015.27 1015.93 1016.40 1016.82 1017.13 1017.21 1017.25
1022.64 1022.71 1022.62 1022.00 1022.18 1022.13 1021.59 1020.75 1020.04 1019.89 1019.65 1019.67 1019.93 1020.47 1020.51 1020.07 1019.79 1019.47 1019.25 1018.96 1018.86 1018.76 1018.54 1018.61 1018.68 1018.81 1018.24 1017.25 1017.15 1016.40 1014.84 1014.61 1014.44 1014.21 1014.08 1014.31 1014.54 1015.14 1015.61 1016.16 1016.93 1017.56 1017.92 1017.97 1017.79
Wind_Speed
21 22 22 22 21 20 21 21 20 20 18 17 16 14 12 10 8 2 7 11 8 12 8 6 3 3 3 3 2 3 1 7 8 8 5 3 5 1 2 4 2 4 1 2 16
21 22 22 22 22 22 22 21 20 20 20 17 15 14 11 8 3 9 8 7 10 12 6 8 6 8 4 5 3 4 4 9 5 5 4 5 5 6 5 4 5 3 3 9 17
22 23 23 23 23 24 24 23 22 21 19 16 14 12 8 4 4 6 5 10 10 9 5 5 6 5 3 3 6 6 9 6 5 5 4 4 3 6 5 7 8 13 13 17 20
24 24 25 25 25 24 24 25 25 23 19 16 15 8 3 1 6 2 8 8 8 8 6 6 5 7 5 7 5 3 9 5 3 4 5 5 5 5 7 8 1 8 15 18 21
24 25 25 25 25 25 25 26 25 24 21 17 13 5 3 3 10 4 5 5 5 5 6 6 5 6 6 5 4 5 4 3 5 6 4 4 7 5 11 10 4 9 14 20 19
25 26 28 28 28 28 28 28 27 26 21 20 12 9 4 5 2 5 6 5 4 4 5 5 6 6 4 5 6 1 2 5 6 6 5 6 3 5 13 5 7 9 13 16 19
27 28 30 30 30 30 30 31 27 24 24 15 8 3 3 10 4 5 6 3 4 3 2 3 2 3 2 3 2 2 5 6 7 5 7 6 3 11 11 4 7 9 9 12 15
26 28 30 30 30 32 32 33 28 23 12 4 11 1 7 3 1 2 2 3 3 3 3 2 3 2 2 3 5 2 2 2 2 5 3 7 5 11 4 6 9 10 9 11 15
26 28 30 31 32 31 33 32 26 8 4 11 5 3 7 1 1 1 2 3 4 3 2 4 3 2 1 2 4 2 5 5 8 6 3 5 4 2 3 4 7 7 9 11 10
28 29 30 31 31 32 32 25 9 5 5 1 2 3 1 2 1 1 2 3 3 4 3 3 4 2 2 4 7 6 4 4 6 1 2 3 14 12 6 4 11 9 10 12 13
29 28 29 31 31 32 16 6 7 4 6 3 2 5 3 3 0 3 3 3 3 3 5 1 2 9 9 6 1 1 3 4 7 4 3 11 12 15 11 6 14 17 10 11 13
29 30 31 32 32 23 4 6 3 4 10 3 4 5 4 1 1 2 3 3 2 3 4 3 9 7 5 5 7 6 5 11 8 2 6 6 16 14 17 11 5 7 6 6 7
29 30 33 32 29 5 2 4 6 2 3 7 3 2 2 1 3 3 2 3 3 5 6 6 3 4 6 3 4 5 6 5 8 5 2 6 9 4 1 6 8 9 9 7 11
30 31 33 31 5 4 3 5 5 2 3 3 1 1 1 1 1 1 1 2 2 6 7 6 2 3 3 4 7 4 2 2 3 2 4 2 10 3 3 5 3 9 12 13 2
31 32 31 13 5 4 6 6 2 3 4 2 2 1 1 1 1 1 1 2 4 5 5 4 2 2 3 1 2 2 2 0 2 3 2 3 2 6 5 4 6 8 11 11 6
31 33 27 4 2 5 7 8 2 5 6 2 1 4 5 2 3 2 1 1 1 2 1 4 1 3 1 1 1 0 1 2 3 2 2 2 6 5 1 4 7 5 8 8 6
32 32 11 3 4 9 6 2 5 5 4 5 4 6 2 4 2 3 2 5 3 5 2 3 2 2 2 2 2 2 3 4 3 1 5 4 1 7 4 3 4 7 8 5 3
33 25 8 2 5 6 3 4 2 4 3 3 5 7 2 6 3 6 2 2 6 4 3 3 3 1 3 1 2 2 3 4 5 2 4 1 6 4 5 6 6 7 7 5 3
29 6 4 3 6 3 5 3 2 0 3 7 9 2 2 3 6 7 3 2 2 4 3 3 4 1 1 1 1 2 2 5 1 3 1 4 3 2 3 4 3 3 4 3 4
10 4 5 8 6 4 5 1 2 1 3 1 2 1 2 4 4 6 3 1 4 1 4 2 5 2 2 1 2 1 4 4 1 4 5 4 5 5 3 0 3 4 4 2 3
4 6 4 11 2 5 2 3 3 2 3 1 2 4 3 1 2 2 3 3 3 1 2 1 6 1 2 5 4 1 2 2 2 3 3 4 6 5 9 7 2 4 5 5 5
3 5 4 7 5 2 1 2 3 3 3 3 2 4 2 2 3 5 6 3 2 1 2 1 2 4 9 2 1 3 3 4 4 5 4 3 6 3 3 1 2 5 3 3 4
7 5 6 4 3 3 5 4 3 2 2 4 3 2 3 2 4 3 3 3 2 4 3 2 3 3 6 0 1 2 3 4 4 1 6 4 5 2 2 6 7 6 4 6 4
3 5 5 5 2 3 4 4 5 3 1 2 3 3 3 3 3 4 3 2 1 3 6 4 5 8 7 9 7 8 5 6 9 5 5 6 10 5 4 6 2 3 3 1 1
2 3 1 5 3 4 2 5 4 4 3 3 4 1 3 1 4 5 2 6 6 5 2 3 5 5 8 10 7 13 16 15 14 15 9 5 8 5 4 5 3 3 5 5 2
2 2 1 5 3 3 4 3 4 3 1 3 3 4 4 4 8 11 4 4 8 4 3 2 5 2 7 14 14 13 15 14 15 15 13 14 17 3 3 2 3 5 5 4 4
2 2 2 3 2 2 5 6 4 2 5 6 3 2 5 12 8 12 12 8 7 4 4 4 2 1 6 4 2 7 8 4 3 5 5 4 2 2 2 2 0 2 4 5 5
Wind_Direction
4 360 357 354 350 348 343 340 336 333 328 322 318 313 307 308 314 270 233 215 184 171 128 123 108 133 107 175 133 137 157 239 237 170 237 160 185 213 108 125 225 199 268 35 138
1 358 355 350 346 343 338 335 330 328 325 321 316 311 306 318 277 239 232 213 162 150 128 164 165 147 169 178 189 167 187 230 213 201 223 186 194 168 167 173 225 221 120 132 149
358 354 351 348 343 339 335 331 326 325 321 316 317 309 302 332 310 251 182 176 169 155 132 143 118 144 188 157 195 181 223 195 243 225 182 191 214 173 166 231 211 204 171 164 167
355 351 348 344 339 335 331 327 324 322 320 313 311 297 281 234 284 220 150 164 162 125 114 125 130 154 198 209 192 218 247 202 244 212 164 201 134 199 202 236 160 215 160 163 177
353 349 344 341 337 333 329 324 319 319 316 307 297 247 153 181 250 168 129 127 98 125 157 154 152 161 188 202 170 221 248 202 241 236 231 134 222 220 243 230 132 124 156 176 183
351 347 344 341 336 332 328 321 318 319 313 305 279 162 159 219 129 124 126 122 143 146 172 154 195 198 213 219 181 191 249 261 257 236 219 204 258 152 257 169 168 169 183 185 188
351 347 343 340 335 330 323 318 317 317 309 303 195 168 158 237 130 115 135 145 154 144 169 203 229 164 148 272 307 312 301 293 227 222 229 159 230 231 242 131 187 203 198 196 198
350 348 344 340 335 329 322 315 316 310 304 165 158 19 249 333 258 90 110 109 108 131 129 118 124 178 203 305 357 293 118 283 249 152 234 171 259 250 201 175 217 215 205 202 199
349 346 342 337 334 329 321 315 314 302 121 128 107 135 275 302 90 63 17 130 120 91 89 111 96 162 36 119 357 317 257 218 311 195 117 190 258 269 136 192 256 236 219 214 203
345 343 340 337 334 331 321 317 315 67 70 75 81 66 261 325 353 51 16 102 120 108 80 79 59 127 56 128 235 227 236 242 253 206 157 242 253 275 253 222 255 249 223 204 196
341 337 338 337 335 331 332 356 14 348 39 312 287 280 274 317 323 37 349 100 102 84 163 61 139 220 212 210 205 242 224 247 253 208 203 240 257 263 267 224 258 250 246 213 212
341 337 336 337 334 330 5 58 48 263 311 297 265 263 253 243 244 39 359 126 138 164 118 59 235 213 189 191 222 241 270 271 278 181 196 285 275 251 248 249 279 323 327 231 178
341 339 335 335 327 39 51 69 301 269 265 297 225 256 247 163 181 185 132 134 152 149 191 183 182 127 171 183 191 221 210 225 249 332 235 311 275 259 351 83 54 29 357 329 202
341 341 337 334 43 327 66 324 310 144 354 285 2 334 100 56 237 312 9 158 182 196 171 229 256 183 166 217 170 260 268 290 274 3 266 336 293 202 251 96 51 15 8 353 132
340 340 343 10 310 358 310 317 322 70 8 333 337 345 17 262 118 293 304 109 202 191 156 249 164 145 209 225 199 258 19 290 172 186 359 185 206 262 6 7 330 356 3 3 22
339 338 343 1 337 256 311 307 100 52 259 341 58 352 358 13 22 323 138 31 45 172 41 268 35 34 62 92 16 9 299 71 53 102 259 249 185 289 35 251 317 333 353 9 25
338 335 343 318 307 310 310 26 28 139 359 340 336 339 357 316 26 23 24 27 8 354 21 336 44 9 12 118 14 89 63 319 320 344 246 346 341 256 286 281 239 291 320 349 57
337 332 315 230 306 318 3 35 210 29 1 357 325 306 99 8 4 342 20 76 34 25 40 34 315 10 343 47 161 75 145 176 261 270 288 212 235 272 245 253 254 274 288 326 26
338 324 341 279 319 353 57 45 232 39 288 331 315 8 5 14 13 6 20 112 89 21 106 5 266 168 211 174 175 216 154 150 165 233 256 246 278 8 333 320 292 251 186 184 187
330 348 290 321 348 55 65 217 233 354 308 325 243 34 309 356 1 9 315 91 141 81 13 192 292 196 121 63 30 199 157 87 213 229 232 273 269 189 217 319 340 349 341 297 218
24 359 268 332 30 48 102 275 310 257 346 271 281 306 282 340 294 279 264 67 40 101 186 236 206 239 80 211 204 138 246 220 158 246 221 271 261 217 166 146 184 292 290 287 299
25 328 315 345 49 15 359 328 311 306 336 311 192 258 280 28 254 238 221 96 208 202 85 215 293 259 238 178 253 154 211 189 217 260 230 227 266 113 278 169 219 280 291 274 263
332 282 309 33 61 359 313 287 273 290 349 338 305 37 13 294 282 268 1 203 210 58 140 228 298 334 313 347 344 226 191 212 292 226 209 237 266 71 224 251 242 231 281 303 295
11 327 323 33 36 38 325 291 304 337 146 326 292 321 18 331 344 337 321 323 171 202 282 218 197 193 238 258 304 281 281 232 218 228 248 220 264 204 229 276 328 3 30 17 184
28 285 114 318 342 324 292 300 297 297 28 323 339 1 121 313 321 258 265 344 313 301 59 221 239 227 263 268 276 278 274 261 243 252 249 276 243 264 221 245 342 335 5 17 64
207 335 314 259 274 281 244 239 266 289 266 285 192 270 143 183 210 281 211 199 239 327 160 205 257 131 279 273 262 263 261 249 249 260 260 263 270 141 114 133 19 9 358 15 358
221 258 227 228 222 224 220 236 259 186 247 235 224 129 280 273 251 236 233 233 229 227 200 212 230 178 251 261 326 304 244 206 220 204 198 249 230 176 142 26 32 323 352 348 346